Regional Weather Roundup
Issued by NWS

Home | Current Version | Previous Version | Graphics & Text | Print | Product List | Glossary On
Versions: 1 2 3 4 5 6 7 8 9 10 11 12 13 14 15 16 17 18 19 20 21 22 23 24 25 26 27 28 29 30 31 32 33 34 35 36 37 38 39 40 41 42 43 44 45 46 47 48 49 50
000
ASUS45 KTFX 220619
RWRMT
MONTANA HOURLY WEATHER ROUNDUP
NATIONAL WEATHER SERVICE GREAT FALLS MT
1219 AM MDT FRI AUG 22 2014

NOTE: "FAIR" INDICATES FEW OR NO CLOUDS BELOW 12000 FEET WITH NO
SIGNIFICANT WEATHER AND/OR OBSTRUCTIONS TO VISIBILITY.

* THESE STATIONS ARE NOT UNDER NWS QUALITY CONTROL. THEY DO NOT
   REPORT WEATHER SUCH AS PRECIPITATION OR FOG.

MTZ001>007-043-220700-
WEST OF THE DIVIDE
CITY           SKY/WX    TMP DP  RH WIND       PRES   REMARKS
KALISPELL      MOCLDY    57  45  64 NE12      30.06R
MISSOULA       CLOUDY    61  50  67 SE8       30.05S
BUTTE          CLOUDY    52  46  80 CALM      30.15R
MULLAN PASS    CLOUDY    48  45  89 E5        30.09S
* ESSEX        N/A       54  44  69 E3G10      N/A
* LINCOLN      N/A       53  49  86 NE5G12     N/A
* LOOKOUT PASS N/A       53  48  83 NE1        N/A
* POLSON       N/A       56  49  77 N2         N/A
* RONAN APT    CLOUDY    59  54  84 N/A        N/A
* SEELEY LAKE  N/A       53  51  93 SW5G16     N/A
* THOMP F APT  CLOUDY    50  44  80 NE7G14     N/A
* YAAK HILL    N/A       58  51  78 N2         N/A
$$

MTZ008-052>055-220700-
SOUTHWEST MONTANA
CITY           SKY/WX    TMP DP  RH WIND       PRES   REMARKS
BOZEMAN        CLOUDY    54  52  93 N5        30.11F
DILLON         LGT RAIN  52  48  86 E3        30.12R
W YELLOWSTONE  CLOUDY    46  46 100 CALM      30.21R
* THREE FORKS  CLOUDY    55  36  49 N/A        N/A
* BOULDER HILL N/A       49  45  86 SE2        N/A
* MONIDA PASS  N/A       48  45  89 SE7        N/A
* RAYNOLDS PAS N/A       46  30  54 S9         N/A
* WHITEHALL    N/A       53  49  86 N8G16      N/A
* WISE RIVER   N/A       50  45  83 E6         N/A
$$

MTZ009>010-012-014-046-048-049-054-220700-
EAST SLOPES AND CENTRAL MONTANA
CITY           SKY/WX    TMP DP  RH WIND       PRES   REMARKS
CUT BANK       CLOUDY    52  48  86 N7        30.19S
GREAT FALLS    CLOUDY    54  48  80 NE10      30.15S
HELENA         FOG       57  54  90 W6        30.11F
MALMSTROM AFB  CLOUDY    54  50  86 NE7       30.16S
* CONRAD       CLOUDY    54  54 100 N/A        N/A
* EAST GLACIER N/A       47  46  96 E6         N/A
* MONARCH      N/A       49  45  86 NW4        N/A
* PENDROY      N/A       49  49 100 NE10       N/A
* ROGERS PASS  N/A       48  47  96 S3         N/A
* SAINT MARY   N/A       47  46  96 NE2        N/A
* SWEET GRASS  N/A       51  51 100 NE11       N/A
* WHITE SULPH  N/A       52  50  93 NE4G10     N/A
$$

MTZ011-013-016-021-035-040-045-047-050-051-220700-
NORTH CENTRAL MONTANA
CITY           SKY/WX    TMP DP  RH WIND       PRES   REMARKS
HAVRE          CLOUDY    57  52  83 N7        30.12F
LEWISTOWN      FOG       55  54  96 W6        30.14S
* FORT BENTON  MOCLDY    55  50  83 NW5       30.15S
* CHESTER      N/A       53  49  86 NE6G11     N/A
* DENTON       N/A       53  52  96 NW8        N/A
* JUDITH GAP   N/A       49  49 100 VRB8       N/A
* LOMA         N/A       55  51  86 NW6G11     N/A
$$

MTZ017>020-022>027-061-062-220700-
NORTHEAST MONTANA
CITY           SKY/WX    TMP DP  RH WIND       PRES   REMARKS
GLASGOW        CLOUDY    61  57  87 E5        30.07S
GLENDIVE       CLOUDY    61  59  93 NE5       30.06S
JORDAN         MOCLDY    61  57  87 CALM      30.07S
SIDNEY         CLOUDY    63  63 100 NW8       30.04F
WOLF POINT     CLOUDY    63  57  81 E8        30.05S
* BEAVER HILL  N/A       62  61  97 N/A        N/A
* CIRCLE       N/A       60  58  93 N/A        N/A
* LINDSAY DVD  N/A       58  57  96 N10G17     N/A
* SACO         N/A       56  54  93 N6         N/A
$$

MTZ028>042-056>058-220700-
SOUTHCENTRAL AND SOUTHEAST MONTANA
CITY           SKY/WX    TMP DP  RH WIND       PRES   REMARKS
BAKER          RAIN      61  59  93 N5        30.05F
BILLINGS       PTCLDY    55  54  96 NW7       30.13R
LIVINGSTON     LGT RAIN  55  54  96 SE3       30.12S
MILES CITY     CLOUDY    63  57  81 N6        30.06S
* LAUREL APT   MOCLDY    54  50  86 N/A        N/A
* ROUNDUP APT  PTCLDY    55  52  90 N/A        N/A
* ALZADA       N/A       61  59  93 W18G29     N/A
* LAME DEER    N/A       56  56 100 N8         N/A
* REED POINT   N/A       56  54  93 SE4        N/A
* ROSCOE HILL  N/A       52  48  86 E2         N/A
$$

REGIONAL REPORTS...DAKOTAS
CITY           SKY/WX    TMP DP  RH WIND       PRES   REMARKS
WILLISTON      LGT RAIN  63  59  87 NE5       30.04R
DICKINSON      LGT RAIN  63  61  93 NE3       30.02R
BEACH          N/A       63  63 100 N3        30.05F
CROSBY         CLOUDY    59  59 100 NE7       30.06R
TIOGA          PTCLDY    59  59 100 N3        30.07R
WATFORD CITY   LGT RAIN  61  59  93 N5        30.01S
BISMARCK       MOCLDY    68  63  84 NE6       29.96R
GRAND FORKS    PTCLDY    68  66  93 NW6       29.88R
FARGO          FOG       64  64 100 CALM      29.87S VSB M1/4
BUFFALO SD     CLOUDY    63  61  93 N13       29.98R
RAPID CITY     MOCLDY    63  57  81 N8        29.99F
$$

REGIONAL REPORTS...WYOMING/IDAHO/WASHINGTON
CITY           SKY/WX    TMP DP  RH WIND       PRES   REMARKS
GILLETTE       CLOUDY    59  55  87 N13       30.10F
SHERIDAN       CLOUDY    59  54  84 NW9       30.12S
CODY           CLOUDY    54  50  86 CALM      30.15F
YELLOWSTONE LA CLOUDY    45  43  93 CALM      30.27F
SALMON         CLOUDY    57  54  90 NW7       30.02R
MULLAN PASS    CLOUDY    48  45  89 E5        30.09S
SAND POINT     CLOUDY    55  55 100 NE18G23   29.99S
SPOKANE        CLOUDY    63  52  68 NE10      29.93F
$$

REGIONAL REPORTS...ALBERTA
CITY           SKY/WX    TMP DP  RH WIND       PRES   REMARKS
CALGARY        LGT RAIN  50  45  83 NE7       30.23S
LETHBRIDGE     CLOUDY    54  52  93 N2        30.19S
MEDICINE HAT   CLOUDY    55  54  96 NE3       30.19S
EDMONTON       MOCLDY    50  43  77 SE3       30.27R
WATERTON GATE  N/A       48  45  89 NE5        N/A
CARDSTON       N/A       50  50 100 NE1        N/A
$$

REGIONAL REPORTS...SASKATCHEWAN
CITY           SKY/WX    TMP DP  RH WIND       PRES   REMARKS
SWIFT CURRENT  LGT RAIN  55  54  96 NE13G20   30.15S
REGINA         CLOUDY    59  55  87 N6        30.11R
VAL MARIE      N/A       57  55  93 N12        N/A
ASSINIBOIA     N/A       57  54  90 NE7        N/A
CORONACH       N/A       59  55  87 N7         N/A

$$




USA.gov is the U.S. government's official web portal to all federal, state and local government web resources and services.